Theta_e
345 346 346 347 348 350 351 351 352 351 352 352 351 352 352 351 351 349 349 350 348 348 348 349 348 349 348 347 349 349 348 347 347 347 346 349 346 339 341 342 336 337 340 342 347 350 352 353 350 350 353 351 352 355 355 351 346 349 352 348 351 352 348 346 343 342 342 341 340 339 341 342 343 343 342 343 341 341 340 338 341 339 339 342 340
345 345 345 347 347 350 351 352 352 352 353 352 352 353 352 352 351 349 349 349 348 349 350 350 349 349 348 348 348 348 349 348 348 348 347 349 345 340 345 344 339 340 340 341 342 346 351 353 349 347 351 351 349 350 350 345 343 349 352 351 352 349 348 347 345 346 344 339 339 339 339 339 341 341 340 342 341 341 341 339 340 339 339 341 341
345 345 345 346 347 350 351 352 352 352 353 352 352 353 352 353 352 350 350 349 349 349 349 350 349 349 349 348 348 348 349 348 349 348 347 349 345 342 347 344 340 344 342 341 344 347 351 352 351 348 348 348 346 348 348 344 344 351 353 354 353 349 348 346 345 348 345 339 339 339 338 338 338 339 340 340 340 340 340 340 340 338 339 340 341
345 345 345 345 347 350 351 352 352 353 353 352 353 352 353 354 351 351 350 348 350 348 348 352 350 349 351 351 351 348 348 349 349 349 348 347 344 346 348 342 343 349 347 347 350 348 345 349 353 352 347 346 346 346 347 348 347 351 354 354 354 351 349 346 345 346 345 344 344 341 337 337 338 339 341 340 339 340 339 338 339 338 338 340 340
346 345 345 345 346 349 350 352 353 353 353 352 353 352 352 355 351 349 349 349 350 345 345 350 347 346 349 351 353 351 350 352 350 349 348 346 344 347 348 342 345 352 351 351 353 347 342 346 351 352 348 347 350 349 349 351 351 353 354 353 353 353 352 351 347 346 346 346 348 346 340 338 341 341 340 341 340 339 339 339 338 337 337 340 341
345 345 345 345 346 348 350 352 352 352 353 352 353 351 352 355 351 348 348 350 350 341 337 344 341 340 344 347 351 352 352 353 350 349 348 346 344 346 348 347 348 353 352 352 354 349 343 343 344 350 352 349 350 352 352 353 352 353 353 353 356 354 352 355 351 346 345 344 345 347 343 342 346 345 342 343 343 339 339 339 338 339 339 340 341
344 345 345 345 345 347 349 351 351 352 353 352 353 352 352 354 351 348 348 349 350 341 333 338 338 339 343 346 350 351 351 351 349 348 348 347 346 346 349 349 349 352 352 352 352 348 343 341 340 347 354 352 351 352 352 352 352 354 355 356 357 350 347 354 354 350 347 345 346 346 344 344 345 345 344 345 345 343 342 341 339 339 340 341 342
344 344 345 345 346 346 347 350 350 351 352 351 353 352 353 354 350 348 346 347 350 342 334 337 337 338 343 347 349 348 348 348 349 349 348 348 348 349 349 349 349 351 352 351 350 346 342 342 341 344 350 353 353 353 353 354 355 356 354 350 348 343 344 351 352 351 351 348 348 347 346 346 344 344 344 344 345 344 344 342 341 341 341 342 343
344 344 344 345 345 345 346 348 349 350 350 350 353 352 354 355 351 348 344 344 348 343 336 337 336 335 340 346 348 346 345 346 348 349 349 349 350 351 351 350 349 348 350 351 348 345 343 342 342 343 347 350 352 353 354 354 355 354 349 347 347 348 351 352 348 349 352 350 351 350 349 348 347 346 344 344 345 346 346 344 341 342 342 342 343
344 343 344 344 346 345 346 347 348 348 349 350 352 353 355 356 352 349 345 345 347 342 337 338 337 334 337 344 349 347 345 346 347 348 350 350 351 352 351 351 351 348 348 348 345 344 343 343 345 346 348 352 353 354 355 354 353 348 347 351 351 349 352 353 351 352 353 352 352 352 351 349 347 348 346 346 346 345 347 347 343 342 341 341 344
345 344 344 344 345 345 345 346 346 347 349 349 350 352 355 357 354 349 345 346 347 341 338 339 337 336 337 343 348 348 347 348 348 348 348 348 348 350 350 348 350 349 347 347 345 346 345 344 348 351 352 354 352 352 354 355 353 351 353 354 348 344 347 352 354 354 353 353 351 349 350 348 346 348 347 347 347 346 349 350 345 344 343 343 345
346 345 344 343 344 345 346 346 345 347 348 349 349 351 354 357 356 350 345 345 345 341 340 339 339 340 341 343 346 346 348 349 349 348 347 345 345 348 349 347 348 348 348 347 347 348 348 345 349 352 352 352 352 353 354 354 354 355 356 356 353 349 347 347 350 352 353 353 352 349 349 348 347 347 347 347 347 348 350 350 347 345 345 346 346
348 346 344 343 344 345 346 346 347 347 348 348 349 350 354 357 357 352 346 345 344 343 342 340 340 341 342 344 345 344 346 349 349 348 347 346 346 347 348 348 349 348 347 347 347 348 349 348 350 352 351 350 350 350 350 351 352 354 356 356 356 354 352 350 350 351 353 353 352 351 349 349 348 347 348 348 347 348 349 349 348 348 349 348 347
349 347 345 343 344 345 345 346 347 347 348 349 349 350 352 355 356 354 349 346 344 343 344 343 343 343 343 345 346 343 344 348 349 348 347 348 347 346 347 347 348 347 346 346 346 346 348 349 348 349 348 346 345 345 345 345 345 348 352 352 355 356 354 352 351 352 354 353 353 352 350 349 349 348 348 348 348 348 347 348 348 349 350 348 346
349 347 346 344 344 344 345 347 348 348 348 349 350 351 351 352 355 354 350 348 346 345 347 347 346 346 344 344 348 347 345 348 349 348 348 348 346 347 346 347 346 346 347 347 347 346 346 348 348 348 346 342 342 342 344 345 343 343 345 346 350 354 353 350 351 353 354 353 354 354 353 352 350 348 348 348 348 349 349 350 349 350 350 350 348
351 349 347 345 344 345 346 347 348 349 349 349 349 350 351 351 355 354 350 348 348 346 348 349 348 350 348 344 348 350 348 348 349 348 349 348 347 347 346 347 346 346 347 348 348 347 347 348 348 348 346 343 342 342 342 346 346 343 344 343 345 352 355 353 353 353 353 353 354 354 354 353 351 349 348 348 349 349 350 351 349 349 351 353 351
351 349 347 346 344 345 347 347 347 348 348 349 348 349 351 351 353 355 352 348 348 347 348 350 350 352 351 347 349 352 350 349 349 347 348 348 348 348 347 346 346 346 348 348 349 350 348 347 348 349 348 347 346 344 342 345 345 344 346 345 345 351 356 355 353 354 355 354 354 354 354 354 353 351 350 348 348 348 351 352 350 348 351 355 355
351 350 349 348 347 345 346 347 347 347 347 348 348 349 351 350 352 355 352 349 350 351 352 352 352 353 352 350 351 353 353 351 350 348 348 348 349 349 347 347 346 346 346 348 349 350 350 347 345 347 349 349 349 347 347 347 344 344 348 347 346 349 351 351 351 352 353 354 354 354 354 355 354 353 351 350 349 349 352 355 352 350 352 356 357
351 352 350 349 348 347 347 346 346 348 348 348 348 348 350 350 352 353 349 346 349 352 354 354 354 353 353 353 353 353 354 353 352 351 350 349 349 349 348 347 347 346 346 347 348 350 351 349 344 343 346 349 349 349 351 350 346 347 351 352 350 349 347 346 349 351 353 354 354 354 354 355 355 354 352 351 350 349 351 353 353 353 354 356 357
351 352 351 349 348 347 348 348 348 348 348 348 348 347 348 349 350 351 349 348 349 351 353 354 353 353 353 354 355 354 354 354 353 353 352 351 350 350 349 348 348 347 346 348 349 349 351 351 349 347 348 349 349 349 350 351 349 348 351 353 354 354 352 348 348 352 354 354 354 356 356 356 355 354 353 352 351 350 350 352 353 354 355 354 354
352 352 349 349 349 349 349 350 350 349 349 350 349 348 349 348 349 351 351 351 350 350 351 352 352 352 353 354 355 354 354 354 354 353 353 353 352 351 351 350 349 349 348 349 350 350 349 350 350 350 350 349 349 350 351 352 353 350 349 349 352 355 354 349 349 352 352 353 355 355 355 354 353 352 353 352 351 350 350 351 353 354 354 353 353
352 353 349 347 348 348 349 350 350 350 351 352 353 352 352 352 352 353 353 352 351 349 350 351 350 350 352 353 354 355 354 354 353 353 353 353 354 353 353 352 351 351 351 350 351 352 350 349 349 350 350 350 350 350 351 353 355 354 352 351 352 353 352 349 349 350 350 351 354 354 353 352 352 352 353 352 352 351 350 350 351 352 352 353 353
352 353 351 348 346 346 348 349 350 351 351 352 354 353 352 354 355 355 355 355 353 349 349 351 351 351 353 354 354 354 354 354 353 352 351 351 352 354 354 354 353 353 353 353 352 353 352 351 350 350 350 351 351 351 352 353 355 355 355 355 354 354 354 352 351 352 352 353 354 354 353 354 353 353 353 353 353 354 353 352 351 351 352 353 353
354 354 353 350 348 346 346 346 346 347 348 350 352 352 354 356 356 356 356 357 355 351 350 352 353 354 353 352 353 353 353 354 353 352 350 350 349 351 352 353 353 353 353 354 354 353 353 353 352 352 351 351 352 352 353 354 354 354 354 355 354 355 355 355 353 354 356 357 356 356 355 355 355 354 354 354 354 355 354 354 353 353 353 354 354
353 353 352 351 350 348 346 346 346 346 344 345 348 350 353 356 358 359 359 359 359 357 355 353 353 355 355 352 352 351 352 353 354 352 351 350 348 348 350 351 353 353 352 353 354 353 354 354 354 353 353 353 353 353 353 354 354 354 355 356 356 356 355 355 355 355 356 356 356 356 356 356 356 356 355 355 354 355 355 355 354 355 354 354 354
352 353 352 352 351 349 348 347 347 348 347 345 345 346 349 353 356 358 358 357 357 357 357 356 356 357 356 354 352 350 351 352 352 353 352 351 350 348 348 349 351 352 352 351 353 353 354 355 355 355 354 353 354 354 354 354 354 354 355 356 357 357 357 356 356 356 356 356 356 355 355 356 356 356 355 355 356 356 356 355 355 356 355 353 353
350 351 351 351 351 349 349 347 346 346 346 346 345 344 347 351 353 353 352 351 352 352 352 353 356 358 358 357 354 351 351 351 351 353 352 352 351 349 349 348 349 351 352 351 352 352 354 355 356 355 354 354 355 355 354 354 354 354 354 355 355 356 356 356 356 356 356 356 356 355 355 355 355 356 356 355 355 356 356 356 354 354 355 354 351
346 347 347 348 348 348 349 347 346 345 344 344 344 343 345 348 350 350 349 349 350 350 349 348 350 352 355 357 357 354 351 351 352 353 353 353 353 351 350 350 349 350 351 351 350 350 353 354 353 353 354 354 354 355 355 355 354 354 354 355 355 355 355 354 354 354 355 355 355 355 355 354 354 356 356 355 354 354 355 355 353 354 355 354 352
343 344 344 345 346 346 347 347 347 346 345 344 343 342 342 341 343 347 350 351 350 350 350 350 349 349 350 352 355 355 353 351 352 354 356 356 354 354 353 351 351 351 350 350 350 349 350 352 352 353 355 355 353 354 355 356 356 355 355 355 355 355 355 354 353 353 353 354 354 353 354 353 353 353 354 354 354 355 355 354 354 355 353 352 351
341 342 342 343 343 344 345 345 346 346 346 346 345 344 342 340 341 344 348 350 350 350 349 349 349 350 349 349 351 352 352 353 355 354 354 354 354 355 354 352 351 351 350 349 348 347 349 350 351 353 354 355 354 353 354 355 355 355 356 356 356 355 353 353 354 354 354 354 353 353 353 353 353 354 353 354 354 353 353 352 351 351 351 349 349
340 340 341 341 342 343 343 344 344 344 345 346 346 346 346 344 343 343 344 345 347 348 348 348 348 348 349 350 351 351 351 354 357 354 351 350 349 349 349 348 349 350 348 347 345 346 347 348 350 352 353 354 354 353 353 354 353 354 355 356 357 356 353 352 352 353 354 354 352 352 352 351 352 353 353 354 354 353 353 351 348 347 346 346 346
339 339 340 340 341 341 342 343 343 344 345 345 346 347 347 347 346 346 345 344 343 344 346 349 349 349 349 349 350 351 350 352 355 354 352 351 348 347 346 345 346 347 347 347 346 347 348 348 349 350 352 353 353 352 353 354 354 354 353 354 355 355 355 354 352 351 352 353 351 350 351 351 352 352 352 352 352 353 353 353 352 351 349 348 348
336 338 339 339 340 340 341 342 343 343 344 345 345 346 347 348 348 348 348 347 346 346 347 350 351 350 350 349 348 350 350 351 353 353 353 352 350 349 349 347 346 346 347 347 347 348 349 348 348 348 349 350 350 351 352 352 352 351 351 353 353 353 354 355 353 352 352 352 352 350 350 350 350 351 351 351 351 351 352 353 354 354 353 352 350
333 335 338 338 339 340 340 341 342 342 343 344 344 345 346 347 347 348 349 349 349 349 350 351 352 351 350 349 349 350 349 349 350 351 353 353 351 350 350 348 347 347 347 347 347 347 348 347 347 347 346 347 349 351 352 350 350 350 350 351 351 351 353 353 354 356 354 351 351 350 349 349 348 348 349 352 353 352 352 353 352 351 351 350 349
331 333 335 337 338 338 338 339 340 341 342 342 343 344 345 345 346 347 347 348 349 349 349 350 350 350 349 349 350 350 349 349 349 350 351 352 351 351 350 348 348 348 347 346 345 345 346 346 347 346 346 347 348 351 352 352 350 350 351 350 349 350 351 352 353 354 353 351 350 348 348 348 347 346 347 348 349 350 350 350 349 349 351 351 350
331 331 334 335 336 336 337 338 339 340 341 341 342 343 343 344 345 345 346 347 347 347 346 346 346 347 347 348 349 350 350 350 350 351 352 351 352 353 351 348 349 348 347 346 345 344 345 346 347 347 347 349 349 349 351 352 350 349 349 349 349 350 352 351 350 351 350 351 350 349 348 347 345 346 348 349 348 348 348 348 348 349 351 352 352
329 329 332 334 335 335 335 335 338 339 340 340 340 341 342 343 343 343 343 344 345 345 344 344 344 345 345 346 348 350 350 350 350 351 352 351 351 352 351 349 349 349 348 348 347 345 345 347 349 347 347 349 350 350 350 349 348 348 348 348 350 352 353 350 349 351 352 351 349 349 348 348 347 348 349 350 349 347 347 348 348 347 347 349 350
328 328 330 332 333 334 334 334 335 336 338 339 339 339 340 340 340 340 341 341 342 342 342 343 343 343 344 344 345 347 348 348 349 350 351 350 349 350 350 350 349 349 349 350 349 347 345 347 350 349 347 349 351 350 348 346 346 347 348 349 351 352 351 349 349 350 351 349 348 347 347 348 349 350 351 352 351 349 347 347 348 346 345 345 348
326 326 328 329 330 332 333 333 333 333 334 336 336 337 337 337 337 337 337 338 339 339 340 340 341 342 342 343 343 344 344 344 344 344 345 345 345 345 346 347 348 349 350 351 349 347 346 348 349 349 349 349 350 349 347 346 346 347 348 349 349 350 350 349 349 349 348 347 347 346 346 348 349 350 350 351 350 349 348 346 346 346 345 346 349
325 324 326 327 327 329 331 332 332 332 332 332 332 332 332 332 333 333 333 334 334 335 337 338 339 340 340 341 341 342 342 342 342 342 342 343 342 341 341 343 343 345 347 349 349 347 347 348 349 349 349 350 349 349 348 348 347 348 348 348 348 349 349 349 348 348 348 347 346 346 346 346 347 347 348 348 347 347 347 346 346 347 348 348 349
324 323 323 323 324 327 329 330 330 330 331 331 330 329 328 328 329 329 328 328 328 329 331 333 336 337 338 338 338 339 339 340 340 341 341 341 340 339 339 338 338 338 341 345 347 347 348 348 348 349 349 349 349 349 349 349 348 348 348 347 347 347 347 346 346 346 346 346 347 349 348 346 344 344 344 344 345 346 347 347 347 348 349 350 350
323 322 321 320 321 323 325 327 329 329 329 330 330 329 329 329 329 328 327 326 323 322 323 324 327 329 331 332 333 334 336 337 338 339 339 340 340 340 340 339 339 339 341 343 344 345 346 347 347 348 348 348 348 348 347 347 346 346 345 345 345 344 344 345 345 345 345 345 345 347 347 345 344 344 344 345 345 347 347 348 347 347 348 348 349
323 321 320 319 320 320 321 324 326 327 328 329 330 331 331 330 330 329 328 326 323 320 319 319 318 319 320 323 325 327 329 331 333 334 336 337 338 340 341 341 342 342 342 343 343 344 344 344 344 344 344 344 344 343 344 344 343 343 344 344 344 344 344 344 344 344 345 345 345 345 346 345 344 344 345 346 346 346 346 346 346 346 346 347 347
324 323 321 320 319 319 319 320 319 320 322 325 326 328 330 329 328 327 325 324 323 322 321 322 321 319 317 316 317 319 322 326 327 328 330 333 335 337 339 339 341 342 342 342 342 342 343 343 343 343 342 343 343 342 342 343 342 343 343 343 343 343 343 343 344 343 343 343 343 343 342 341 341 342 342 342 343 343 342 342 342 343 343 343 343
324 323 323 322 321 320 320 319 318 315 315 316 319 324 328 329 328 326 324 323 322 322 323 324 323 322 321 320 317 316 317 319 321 324 327 330 333 335 338 339 339 340 340 340 340 340 341 340 340 340 340 339 339 340 341 341 341 341 341 342 342 341 341 341 340 340 340 339 339 337 336 336 335 335 335 336 337 337 338 338 340 340 341 342 341
325 325 325 324 324 323 322 321 319 318 316 316 315 318 325 329 330 328 327 327 325 324 325 326 324 322 321 321 320 319 318 318 319 320 322 325 329 331 333 335 336 336 336 336 337 336 337 337 336 336 336 334 334 336 337 337 338 338 338 337 338 337 337 336 334 334 334 334 334 332 329 329 328 327 329 331 332 335 337 338 340 341 341 343 342
327 327 327 326 327 326 325 323 320 318 318 318 318 317 320 326 329 329 329 330 329 328 328 328 327 325 323 321 320 318 316 316 318 320 321 322 324 327 328 331 332 333 333 334 334 333 333 333 332 332 332 331 330 331 332 331 332 333 332 331 332 331 329 326 324 325 324 324 328 328 324 326 330 331 332 332 333 335 336 336 339 341 341 343 343
328 329 329 328 328 328 327 325 323 319 316 315 316 315 313 316 320 323 325 328 329 329 329 329 327 326 326 325 323 321 318 314 313 316 318 319 320 322 324 327 330 331 332 332 332 332 331 331 331 331 331 330 328 328 327 327 328 328 325 322 323 325 323 320 320 321 317 317 323 326 326 331 336 337 335 335 335 336 336 335 336 339 340 341 342
329 329 329 329 329 328 328 327 326 324 320 316 315 313 310 308 309 312 317 323 327 329 329 328 328 328 327 327 325 324 324 321 316 313 312 314 316 316 317 319 322 326 329 330 331 332 332 332 331 330 328 325 322 319 319 319 321 322 319 316 316 316 315 313 314 313 310 313 322 327 328 333 337 336 336 336 336 336 336 334 335 337 337 338 338
328 328 329 329 329 329 328 328 327 327 325 322 319 316 313 311 310 309 310 315 323 328 328 325 324 323 325 326 325 323 323 323 322 320 315 312 311 312 312 312 313 314 317 320 322 322 323 322 320 318 316 314 313 311 311 311 312 314 314 313 312 312 310 308 308 308 309 318 328 332 332 333 335 335 336 335 335 336 335 334 335 336 336 336 336
328 328 328 328 328 328 327 327 328 328 327 326 324 322 321 318 315 314 313 312 315 321 325 326 323 319 319 323 324 323 323 322 322 323 323 319 316 314 312 311 312 311 310 310 311 311 311 311 311 310 310 309 309 309 308 308 308 308 309 309 309 309 308 308 308 311 317 326 332 332 332 333 334 335 335 334 334 334 333 333 334 334 333 333 333
Wind_Speed
17 17 17 16 15 15 15 14 14 14 14 14 14 14 13 12 12 13 13 14 14 14 13 12 11 11 11 11 10 10 10 10 10 9 10 10 10 12 11 11 12 11 10 10 10 9 7 4 5 6 4 4 6 5 5 7 7 4 2 4 3 0 1 1 2 1 2 4 2 3 4 3 4 4 4 6 5 5 7 6 6 7 8 9 7
17 18 18 18 17 16 15 15 15 15 15 15 14 14 14 13 13 13 13 14 14 14 14 12 12 12 11 11 10 10 11 10 10 9 9 10 11 12 10 10 11 10 10 9 8 7 6 4 4 5 4 4 6 6 6 8 7 4 1 1 1 1 1 0 1 1 2 4 3 3 5 5 4 4 5 6 6 6 7 7 7 7 8 9 8
18 19 19 19 18 17 16 15 15 15 15 15 15 15 15 14 14 14 13 13 14 14 14 13 12 11 10 9 9 10 10 9 9 9 9 10 11 11 10 10 11 9 9 8 7 6 6 5 3 4 4 4 5 5 5 6 6 4 1 2 3 3 2 1 1 0 2 1 3 4 5 5 4 5 6 5 5 5 5 7 7 7 8 8 7
18 19 20 19 19 19 17 16 16 16 15 15 16 15 15 15 15 15 14 13 14 15 15 13 13 13 11 9 9 9 10 9 9 9 9 10 11 11 10 11 10 8 8 7 5 6 7 5 3 3 4 4 4 4 4 4 4 3 2 2 2 1 2 1 1 0 2 0 2 3 4 5 4 4 7 6 6 6 5 6 6 6 8 8 7
19 19 20 20 20 19 18 17 16 16 16 16 16 16 15 16 16 16 15 14 13 15 16 15 15 15 15 14 11 10 10 9 10 10 10 11 11 10 10 10 10 8 7 7 5 6 7 6 5 4 3 4 3 3 3 3 4 3 3 3 0 1 2 1 1 1 0 0 1 2 3 4 3 3 5 4 5 6 4 4 4 5 7 7 7
20 20 20 20 20 19 18 18 17 17 16 16 17 16 16 16 16 16 16 15 14 14 16 16 15 15 15 15 13 11 11 10 10 10 10 11 11 10 9 9 10 8 7 7 6 7 7 6 7 4 2 3 4 4 4 4 4 3 3 2 0 2 3 0 2 1 0 0 1 1 3 3 2 4 6 2 4 8 5 5 5 5 7 7 6
20 20 21 21 20 20 19 18 18 17 16 16 16 16 16 17 16 16 16 16 14 15 16 16 16 16 14 14 12 11 11 10 10 10 10 10 10 10 10 9 10 8 7 8 8 8 7 7 7 5 3 3 4 4 4 3 4 4 4 4 3 5 4 0 2 1 1 2 1 1 2 4 4 5 6 5 4 7 6 7 8 7 8 8 6
21 20 21 21 21 21 20 19 18 17 17 16 17 16 17 17 16 16 17 17 16 16 17 16 17 17 15 13 12 11 10 10 10 9 9 10 9 9 10 9 10 9 8 8 9 8 7 7 7 6 5 4 4 3 3 4 4 4 7 7 6 5 3 2 3 1 2 3 1 2 3 4 6 6 6 7 5 6 6 6 7 8 10 9 7
20 21 21 21 21 20 20 20 18 18 17 17 17 16 17 18 17 16 16 17 17 17 17 17 17 17 17 13 11 11 10 10 10 10 9 10 10 9 9 9 10 11 10 9 9 8 8 8 7 6 6 5 4 3 4 5 6 7 6 5 5 4 4 5 4 3 4 4 2 3 4 4 5 5 6 7 4 3 5 5 6 8 9 9 8
20 21 22 21 20 20 20 20 19 18 17 17 17 17 17 18 17 17 16 17 17 17 17 17 17 17 17 15 12 12 11 11 11 11 10 11 11 10 11 11 9 10 11 10 10 9 8 8 7 6 5 5 5 5 5 5 6 6 4 4 7 7 6 5 5 4 5 5 4 4 4 5 6 5 7 6 4 4 5 5 8 10 10 9 9
20 20 21 22 20 20 20 20 20 19 18 18 18 18 18 17 17 16 16 17 18 17 18 18 17 17 17 16 15 14 13 12 12 12 12 12 12 11 11 11 10 9 10 10 10 10 9 8 7 6 6 6 6 5 4 4 4 3 3 6 8 7 7 6 6 6 6 7 7 7 7 7 7 7 7 7 6 6 5 5 7 10 11 12 11
20 21 21 22 21 21 21 20 20 19 18 18 18 18 18 17 17 16 15 17 18 17 18 19 18 17 17 16 16 16 15 13 13 13 13 13 12 11 11 11 10 10 10 10 10 10 10 9 8 7 7 7 6 6 6 6 5 4 5 6 6 7 7 7 7 7 7 7 8 8 8 8 8 8 8 8 7 6 5 6 8 9 11 12 11
17 20 20 23 23 21 21 20 21 20 19 19 18 18 18 17 17 16 15 16 17 18 19 19 19 18 17 16 15 16 16 15 14 14 13 13 13 12 12 11 11 11 10 10 10 10 10 10 9 9 8 8 8 8 9 9 8 7 6 6 6 7 7 7 8 7 7 8 8 8 8 9 9 9 9 8 8 8 8 9 8 8 10 10 10
18 20 19 22 23 22 22 21 20 20 19 19 18 18 18 18 17 16 15 15 16 18 19 20 20 20 18 17 16 16 16 16 15 14 13 13 13 13 12 12 11 11 11 11 10 10 10 10 10 10 10 9 9 9 9 9 9 9 8 8 7 7 8 8 8 7 8 9 8 9 9 9 9 9 9 9 9 10 10 10 10 9 11 11 10
22 23 21 20 22 22 22 21 20 20 20 19 18 18 17 18 18 17 15 16 16 17 19 20 20 20 19 18 17 16 16 16 15 15 14 14 13 13 13 12 11 11 11 11 11 11 10 10 11 11 10 10 10 10 9 9 9 9 10 10 8 8 9 9 8 8 8 9 9 9 10 10 10 10 10 10 10 10 10 9 10 11 12 12 11
18 18 20 20 21 22 21 21 20 19 20 20 19 18 17 17 19 18 16 15 16 17 19 20 20 20 20 19 19 18 17 17 16 16 15 14 14 14 14 14 12 11 11 11 12 12 11 11 11 11 11 11 11 11 10 10 10 10 10 11 10 8 9 9 9 8 9 9 9 10 10 10 10 10 10 11 10 11 11 10 10 11 12 12 12
14 13 17 19 19 22 21 20 20 20 20 20 19 18 18 18 18 19 18 17 17 17 19 21 21 20 20 20 20 19 18 18 17 17 16 15 15 14 14 14 14 12 12 12 12 12 12 12 12 11 11 11 11 11 11 11 11 10 10 11 10 9 9 11 11 9 9 10 9 9 9 9 10 10 10 11 11 12 11 11 11 11 10 11 12
13 14 17 20 19 19 21 20 19 20 19 20 19 18 18 18 18 20 19 17 17 19 19 19 20 20 20 20 20 19 19 18 17 16 17 16 16 15 15 15 15 14 13 12 12 12 13 14 13 13 13 12 12 12 11 12 11 11 11 12 12 11 12 13 13 11 10 11 10 10 10 10 10 10 10 11 11 12 11 11 12 11 10 10 11
9 11 14 19 19 16 18 20 18 18 18 18 19 18 18 19 19 19 19 18 18 19 18 18 19 20 19 20 20 20 19 18 17 17 17 17 17 16 16 15 15 15 15 15 14 13 13 14 14 14 14 14 13 13 12 13 12 11 11 12 12 13 13 13 13 12 11 11 11 11 11 11 11 11 11 11 11 12 12 11 12 11 10 10 11
5 8 10 14 13 11 15 16 16 17 17 17 18 18 19 19 19 19 18 19 20 19 19 18 19 19 19 19 20 20 20 19 18 17 17 17 17 17 17 17 16 16 16 16 16 15 14 14 14 13 13 14 14 13 13 14 14 13 12 12 12 13 14 14 13 12 11 11 11 11 11 11 11 11 11 12 12 12 12 12 12 11 11 12 12
3 6 10 12 10 9 9 10 12 13 14 14 14 15 17 18 18 18 18 19 19 20 20 18 18 19 19 18 19 20 20 20 19 18 18 18 17 17 17 17 17 17 17 17 17 17 16 16 15 14 14 14 15 15 14 14 15 15 14 13 13 14 16 15 13 12 12 12 13 13 13 13 13 12 12 12 12 13 13 12 12 12 12 13 12
3 4 8 12 11 12 10 6 7 8 9 11 11 12 14 15 15 15 16 18 18 18 19 18 18 18 18 17 18 19 20 19 19 19 19 19 18 18 17 17 17 17 17 17 17 17 17 17 17 16 15 15 16 17 16 15 15 15 14 14 14 15 17 16 15 15 15 14 14 15 15 15 14 13 14 13 13 13 13 13 13 12 13 13 13
4 3 5 8 11 12 12 10 7 7 9 9 9 11 13 12 13 14 14 17 19 19 18 18 18 18 17 17 17 18 18 19 20 20 20 20 19 18 18 17 17 17 17 17 18 17 17 18 18 18 18 17 16 17 17 16 16 16 15 14 14 14 15 15 15 15 16 15 15 15 15 14 14 14 14 14 13 13 13 13 13 13 13 13 13
5 4 3 3 5 8 11 13 11 11 12 9 8 11 13 11 12 13 14 15 17 18 18 18 19 19 18 17 17 18 18 18 19 20 20 20 20 19 18 18 18 17 17 17 17 18 18 18 19 19 19 19 18 18 17 16 16 17 17 16 16 15 16 16 15 15 15 15 15 15 15 15 14 14 15 14 14 13 13 13 13 14 14 13 13
6 5 5 4 2 2 7 10 13 14 16 14 11 12 13 12 11 11 13 15 15 15 16 18 19 20 20 19 18 18 18 18 19 20 20 20 20 20 19 19 18 18 18 17 17 18 18 19 20 20 20 20 20 19 18 17 17 16 17 16 16 17 17 17 17 17 17 17 17 17 16 15 15 15 15 15 14 14 14 13 13 13 13 13 12
7 6 6 6 5 2 1 6 10 12 15 17 16 15 15 14 13 13 15 16 15 15 16 16 17 19 20 21 20 19 19 19 19 19 20 20 20 20 20 19 19 19 18 18 18 18 18 19 20 20 20 20 20 20 19 19 18 17 17 16 16 16 16 16 16 17 17 17 18 18 17 16 16 17 16 15 15 15 14 13 13 12 13 15 13
10 10 9 8 7 6 4 1 6 9 11 13 16 18 17 15 13 14 15 16 16 16 16 16 16 17 18 20 21 21 20 19 19 19 19 19 19 19 19 19 18 18 18 18 19 18 19 20 20 21 21 21 20 20 20 20 19 18 18 17 17 17 16 16 16 16 17 17 18 18 18 17 17 17 17 16 16 15 15 15 15 13 14 16 15
13 12 12 11 10 8 6 3 2 6 9 10 12 15 18 17 14 12 11 12 14 15 16 16 18 18 18 19 20 20 21 20 19 18 18 18 18 18 20 20 19 19 18 17 18 19 19 21 21 20 22 22 21 20 20 21 20 19 19 18 18 17 17 17 18 17 17 17 18 18 18 18 18 17 18 17 17 16 15 16 16 16 16 16 16
13 12 11 11 10 9 7 4 2 1 5 9 11 13 16 18 18 14 9 8 10 12 13 15 17 18 19 20 20 21 22 21 20 19 19 19 18 17 19 22 22 22 22 20 19 19 19 21 19 18 19 21 21 21 20 20 20 20 19 19 18 17 17 17 18 18 17 17 18 17 17 19 19 19 19 18 18 18 17 17 16 17 19 19 18
12 11 11 10 9 9 8 5 3 2 2 6 9 11 13 16 18 16 12 8 7 9 11 12 14 16 18 19 21 22 21 18 20 23 24 24 22 19 21 23 23 23 24 23 22 20 20 20 20 19 19 20 21 21 21 22 22 20 18 17 18 19 20 18 17 18 19 19 18 17 18 19 19 19 20 20 21 22 22 22 20 19 22 21 20
11 10 10 10 10 9 8 7 6 4 1 4 6 8 10 13 16 18 18 15 12 11 11 12 14 15 17 18 19 21 21 19 21 26 27 26 25 23 24 24 23 23 23 23 22 22 21 20 20 20 20 20 22 22 21 23 23 22 20 17 16 19 21 21 20 21 21 21 19 18 18 20 20 20 21 21 23 25 23 23 23 22 23 23 21
13 11 10 10 10 10 9 9 8 7 5 1 3 4 5 9 13 15 18 20 21 19 16 14 15 16 17 19 20 21 23 23 22 23 24 23 23 23 23 23 22 23 24 23 21 21 22 22 22 21 20 19 21 23 24 23 23 23 22 20 18 17 17 19 21 22 21 20 19 19 19 19 20 20 21 21 22 22 22 21 20 20 21 22 22
13 12 11 11 11 10 11 10 9 8 6 3 1 2 3 5 8 11 13 15 18 18 16 14 15 16 17 18 19 21 23 24 23 21 22 23 22 21 22 21 20 22 23 24 23 22 23 24 24 24 22 19 19 21 23 24 23 22 23 22 21 18 18 19 18 18 20 20 20 21 22 22 21 20 21 22 20 19 19 19 19 21 23 24 25
14 12 12 13 12 11 11 10 8 7 7 5 3 2 2 2 3 7 9 11 12 13 13 12 13 14 15 16 18 20 22 25 25 23 22 23 22 21 21 21 20 21 22 23 24 24 24 25 26 27 25 23 20 18 19 20 21 21 21 21 21 20 20 18 15 15 19 22 23 24 24 24 23 21 21 22 22 21 21 21 22 23 26 27 27
12 11 12 13 13 12 11 9 8 8 8 8 7 5 3 2 2 2 4 5 6 7 8 9 10 12 14 15 17 20 23 25 24 22 22 22 20 20 22 22 21 22 23 25 25 24 23 24 25 25 24 24 24 21 18 18 18 18 18 20 21 22 21 18 16 18 20 21 23 25 25 25 24 22 21 22 24 25 25 26 26 23 24 26 26
11 8 9 12 14 13 13 11 8 8 9 10 10 9 7 6 4 3 2 2 1 1 1 3 5 8 11 14 15 16 19 20 19 19 21 21 18 18 22 22 22 23 25 26 26 24 24 24 25 25 23 22 24 24 21 19 18 17 17 20 21 21 22 22 21 21 22 21 22 23 24 25 25 23 23 23 24 25 26 27 26 24 24 27 27
9 8 9 11 12 13 14 13 10 9 9 11 12 12 11 10 9 8 7 7 7 7 7 7 6 3 2 7 11 12 15 16 15 15 17 17 16 16 18 20 22 24 26 27 26 25 24 24 25 25 24 22 22 23 22 20 20 19 19 19 19 18 21 24 22 21 23 24 23 23 23 24 24 24 26 25 25 25 26 26 26 25 26 28 29
8 9 10 11 11 12 13 13 13 11 10 9 10 11 12 12 13 13 13 13 14 14 13 12 11 10 8 4 2 4 8 10 12 13 14 14 15 15 15 17 20 23 25 27 26 25 25 25 25 23 23 23 23 23 22 21 21 21 20 20 20 19 21 23 22 21 24 25 25 23 23 24 24 25 25 25 24 25 26 28 28 28 29 32 32
9 9 11 11 11 11 11 12 14 14 12 10 10 11 13 14 16 17 17 17 17 17 15 13 12 11 11 9 7 4 1 2 4 6 7 9 9 8 8 11 16 22 27 29 26 24 23 23 23 20 19 21 22 22 21 20 19 20 20 20 19 19 19 20 19 19 21 22 22 22 22 22 23 24 23 22 22 24 26 28 29 28 30 34 33
9 9 10 10 10 10 11 11 12 13 13 12 13 15 17 17 17 18 19 19 18 17 16 14 12 11 10 9 7 6 5 3 2 1 1 2 2 2 2 3 6 11 17 23 24 20 19 20 21 19 18 18 18 18 18 17 16 16 17 18 17 15 16 17 17 17 17 18 18 18 19 21 23 24 25 25 25 26 26 27 28 29 31 33 31
10 10 9 10 10 10 10 11 11 11 11 11 14 17 18 18 17 18 18 18 17 16 15 14 12 11 10 10 9 8 7 6 4 4 4 4 2 2 3 4 6 6 3 5 12 14 15 18 20 20 18 17 16 15 15 14 13 14 14 15 16 16 17 17 17 17 17 17 16 15 17 21 23 24 25 27 27 28 28 29 30 31 32 32 32
11 11 10 10 10 10 10 11 11 11 10 10 12 14 15 15 15 16 15 15 16 16 15 14 13 12 11 10 10 9 8 7 5 4 3 3 2 1 3 4 6 6 5 2 4 8 9 10 12 12 12 13 13 13 13 13 13 13 14 15 17 18 18 18 19 19 18 17 17 17 19 22 24 25 26 28 29 31 32 33 34 35 34 34 36
11 10 10 10 10 10 10 10 10 10 10 10 11 13 13 13 13 13 12 13 14 15 15 15 14 13 12 11 10 9 9 9 8 7 6 4 2 1 2 3 4 4 3 2 4 6 6 7 7 7 8 10 11 12 13 14 14 14 15 17 17 18 18 18 18 18 17 17 18 20 21 21 22 23 25 27 29 30 31 32 33 34 35 35 36
11 11 11 11 10 11 11 10 10 10 11 11 11 13 13 13 13 12 11 12 13 13 14 15 14 14 14 13 12 11 10 10 10 11 10 9 7 5 3 2 2 2 2 3 4 5 6 6 7 7 8 9 10 10 10 11 11 12 12 13 13 14 14 14 14 14 15 16 17 17 18 18 18 19 21 22 23 24 26 27 28 30 31 32 34
12 12 12 12 11 11 11 11 11 10 10 11 12 13 14 13 12 11 11 12 12 13 13 14 13 14 14 14 14 13 12 11 11 11 11 12 11 9 7 6 4 3 1 1 2 3 4 5 4 4 5 4 4 5 6 6 8 8 9 9 9 9 9 10 10 10 11 12 12 12 12 13 14 15 16 17 18 20 22 23 25 26 27 27 28
12 12 12 11 11 11 11 11 11 10 10 10 10 11 13 13 11 9 10 11 12 12 13 13 13 13 13 13 13 13 12 12 11 10 10 10 11 11 10 9 8 7 7 6 4 3 2 1 1 1 2 3 3 2 3 3 5 6 6 6 7 7 7 6 7 7 8 9 9 9 10 10 10 12 13 14 15 17 18 19 20 20 20 19 19
10 10 10 10 10 10 10 10 11 10 10 10 9 9 11 11 9 8 8 9 10 11 11 11 11 11 12 12 13 13 13 13 12 11 10 9 10 9 9 9 9 9 10 9 8 7 7 7 6 5 5 6 4 3 2 2 2 3 3 4 5 5 5 6 7 6 6 7 9 9 9 10 10 11 12 13 13 13 14 14 15 15 14 14 14
9 9 9 9 9 10 9 9 10 10 10 10 10 9 8 8 8 8 8 9 10 10 10 10 10 10 11 11 11 12 13 13 12 11 11 11 10 10 9 10 10 9 10 10 9 8 8 8 7 6 5 5 5 5 5 4 4 4 5 6 7 7 8 10 10 9 7 9 10 8 7 9 11 12 12 12 10 10 12 13 12 11 10 10 11
8 8 9 9 9 9 9 9 9 10 10 10 10 10 10 9 8 8 8 10 10 10 10 9 9 9 9 9 9 9 10 10 11 11 11 11 11 10 10 10 9 8 8 8 7 6 5 5 5 5 5 5 7 7 7 7 7 7 8 8 8 8 9 10 10 8 7 8 9 7 5 7 8 9 11 10 8 9 12 13 11 10 9 9 9
8 7 8 8 9 8 9 9 9 9 10 10 11 10 10 10 9 9 9 9 10 10 9 9 8 8 8 8 8 7 7 7 7 8 9 11 11 11 10 9 9 8 7 6 5 4 4 4 5 5 6 7 8 8 8 8 8 8 8 8 8 8 8 7 7 6 4 4 7 7 6 6 6 6 8 9 8 8 11 12 12 10 10 8 6
7 7 7 7 7 6 7 8 8 8 8 9 10 10 10 9 8 9 9 9 9 10 9 8 8 8 9 9 7 6 7 6 5 5 6 7 10 11 10 9 8 8 7 7 6 5 5 5 5 6 6 7 7 8 8 8 8 8 8 8 7 6 6 6 5 3 2 5 7 6 4 4 5 4 5 7 7 6 8 10 10 9 8 7 5
Wind_Direction
171 172 172 169 168 167 163 162 162 160 162 165 166 167 165 164 165 161 159 161 161 157 153 154 156 153 155 155 156 156 155 157 155 155 156 154 167 167 159 165 167 163 164 159 153 151 151 170 174 149 150 166 155 162 175 183 177 147 136 137 106 277 159 133 166 163 200 169 177 211 185 202 201 200 219 213 214 202 196 206 212 213 206 201 210
173 171 173 172 171 170 165 164 165 163 166 168 168 170 167 168 170 165 164 164 163 162 159 161 162 157 158 159 159 160 158 159 157 158 158 158 170 166 158 169 168 163 167 167 168 160 152 170 174 155 158 171 170 176 183 181 171 151 161 163 141 187 162 71 145 152 228 191 192 217 197 194 199 222 231 220 222 215 207 211 215 226 220 210 215
176 174 175 174 172 171 168 168 168 167 169 169 171 173 168 171 174 170 170 168 166 170 165 164 164 159 160 160 159 161 159 158 158 158 157 163 170 161 162 175 168 163 172 174 174 168 165 171 173 171 172 170 168 169 176 183 174 157 218 230 178 174 173 118 122 29 320 199 191 215 207 192 201 242 237 225 227 225 227 224 219 233 228 216 220
179 178 178 177 173 172 172 171 170 169 171 171 173 175 172 176 179 175 175 171 170 176 169 164 170 166 160 159 158 160 160 159 159 157 158 165 167 163 173 177 163 166 178 171 174 186 179 165 164 196 189 166 164 167 165 173 183 187 212 193 172 179 165 147 142 15 352 18 200 227 218 210 219 236 225 219 228 229 236 239 232 248 240 217 227
181 181 181 180 175 175 174 172 172 171 173 175 174 176 176 179 181 178 177 174 176 180 174 172 177 174 169 167 162 159 162 165 164 164 163 163 168 171 179 177 162 168 180 167 182 200 185 174 181 194 194 171 159 165 167 177 193 200 192 174 204 351 107 91 195 152 342 93 135 249 239 235 252 277 246 217 241 257 267 274 266 284 272 234 232
183 184 183 182 178 177 176 175 176 174 175 176 175 176 176 179 183 180 178 177 182 184 180 179 179 179 181 176 170 167 170 172 170 171 169 166 171 174 178 180 169 170 179 172 190 205 191 190 191 180 194 187 170 175 183 188 186 183 184 164 201 201 143 18 265 155 105 165 125 221 233 261 298 299 283 280 278 276 297 298 266 282 295 279 271
186 186 185 184 180 177 178 180 179 177 177 175 174 176 175 180 184 182 181 179 183 187 184 183 180 181 185 180 178 178 175 177 174 172 173 170 174 177 178 184 180 178 183 184 197 205 196 199 199 185 186 194 188 184 176 178 179 185 201 187 194 206 174 225 298 50 23 271 243 244 250 274 291 286 285 308 286 261 284 293 275 283 291 295 315
187 187 187 185 181 180 180 183 182 178 177 175 173 174 174 181 185 184 184 181 183 189 186 184 185 184 184 181 185 185 179 182 178 173 177 176 176 179 179 188 193 187 188 200 207 206 201 203 206 198 191 194 194 187 182 183 183 201 215 208 213 230 214 238 271 324 321 298 277 280 281 291 298 288 288 308 295 268 290 290 276 283 280 288 315
189 188 188 187 184 183 182 183 184 181 178 177 174 173 174 180 184 186 188 184 185 191 189 186 188 189 188 185 186 187 185 190 186 179 181 180 179 181 180 189 203 199 195 205 210 209 210 208 209 208 202 198 187 185 201 195 198 216 223 218 226 242 245 250 254 258 292 314 344 304 284 291 295 288 289 300 303 301 306 290 280 284 275 282 291
193 191 187 189 187 185 184 183 185 184 180 178 175 172 173 179 183 187 189 188 189 192 191 190 190 191 191 188 189 188 186 192 194 189 189 188 185 188 188 187 200 208 206 210 210 209 214 211 212 212 205 205 200 197 205 207 219 228 224 226 233 234 236 250 261 265 277 291 303 295 280 277 281 287 287 287 307 320 304 284 292 301 292 289 290
194 193 188 189 190 187 186 185 186 186 181 179 179 174 173 178 183 188 190 190 194 194 192 192 192 193 193 191 193 192 189 192 196 194 197 198 192 193 199 195 196 205 211 217 217 213 215 212 209 210 208 211 210 204 205 218 232 238 238 242 248 248 243 245 250 261 275 277 279 280 275 271 271 283 285 280 292 300 294 281 289 304 294 283 288
198 195 190 188 190 189 188 187 186 186 182 182 183 177 175 178 183 191 193 193 197 197 195 194 193 194 196 196 197 197 195 193 194 195 199 202 196 194 201 203 202 204 206 215 218 216 219 219 211 211 218 217 212 209 205 205 204 209 232 245 258 257 251 253 251 253 267 273 275 273 275 278 277 285 289 286 288 288 293 289 281 289 285 276 282
204 197 193 188 189 190 189 188 186 185 186 186 186 181 177 179 188 194 195 197 201 200 198 197 195 194 197 198 201 200 198 195 196 197 198 199 196 196 202 204 205 206 207 212 213 213 220 225 218 213 220 220 217 216 213 209 202 203 223 233 246 256 254 256 256 254 260 269 276 275 276 282 281 287 292 289 289 286 284 283 278 279 281 281 288
209 203 200 189 187 190 189 188 186 185 188 188 187 186 180 182 194 200 199 201 206 204 202 201 198 197 197 198 202 204 201 198 199 198 198 200 198 199 205 209 211 211 212 215 213 211 217 227 229 223 222 224 224 224 224 225 219 216 227 230 235 251 252 249 255 263 266 267 272 274 277 281 282 287 292 291 290 289 288 291 298 298 292 294 296
206 203 205 195 187 191 189 187 187 186 190 191 190 189 185 186 196 204 205 205 208 208 206 204 201 200 199 198 200 203 203 201 201 200 200 204 204 203 206 208 214 216 215 216 216 213 212 222 233 233 229 229 229 229 228 232 234 229 235 240 239 247 255 257 257 259 263 267 270 274 278 282 284 284 287 290 291 294 295 294 300 301 299 301 301
203 202 210 201 189 190 189 188 189 188 191 192 193 194 190 188 196 206 211 210 212 211 208 207 205 203 202 200 199 201 202 202 204 204 202 205 207 208 209 208 209 214 214 215 218 217 213 216 227 234 238 237 233 234 231 230 236 237 240 247 245 245 255 261 260 258 262 267 268 272 277 279 281 282 284 285 286 291 293 292 295 299 300 300 299
202 205 213 211 200 194 191 190 192 192 193 193 195 197 193 192 197 205 212 214 215 214 210 209 207 205 205 203 200 201 203 202 205 207 206 208 209 208 211 211 209 210 212 214 219 222 220 219 220 225 238 243 237 236 237 234 238 241 243 251 252 244 244 251 255 257 260 264 266 269 272 277 279 281 282 283 285 288 288 288 288 287 288 291 294
199 199 208 219 216 203 195 195 195 195 196 197 197 196 196 199 199 204 212 216 216 214 209 207 207 206 208 207 203 202 205 205 206 209 208 210 212 210 210 212 212 212 212 214 217 223 228 230 226 220 225 235 235 234 236 238 241 241 243 252 255 248 243 248 255 257 258 261 264 263 265 270 275 279 281 282 284 286 285 285 285 283 282 284 289
208 204 204 214 218 217 207 200 199 200 198 199 201 199 201 203 200 206 215 215 214 213 205 204 208 207 207 210 207 205 206 207 207 210 210 210 213 213 212 212 213 214 215 216 215 217 227 236 236 228 224 229 232 230 231 236 241 239 239 247 255 259 257 255 257 259 260 261 262 263 264 266 270 275 279 281 281 281 281 281 282 285 284 281 282
199 202 186 189 199 218 218 208 205 208 207 206 204 201 203 207 205 206 210 208 209 209 205 205 209 208 206 207 209 209 208 209 209 210 211 212 214 215 216 216 215 215 217 219 219 216 219 228 234 231 226 228 231 230 228 235 242 239 235 236 243 258 265 264 258 254 254 258 260 261 262 264 267 270 273 277 279 278 278 277 277 280 279 278 280
162 196 188 176 157 157 189 206 205 210 218 218 210 203 204 208 208 206 207 207 208 210 211 208 207 211 208 204 208 211 209 210 211 212 213 215 216 217 218 219 218 219 219 220 222 220 219 222 226 227 227 227 228 228 226 230 237 240 239 235 232 240 253 260 260 255 253 253 256 258 260 263 266 268 270 272 274 275 275 273 272 274 274 272 274
130 182 199 197 177 153 148 166 187 203 222 222 214 210 208 209 209 208 210 211 211 214 214 210 208 212 211 208 212 213 210 211 213 215 215 215 216 217 218 219 220 221 221 221 223 223 222 223 224 226 227 227 229 231 230 227 231 238 241 239 236 238 248 255 258 260 260 257 255 258 262 265 268 268 268 269 269 271 272 271 268 269 270 272 275
116 134 177 204 205 188 171 166 173 189 202 210 216 212 211 217 216 213 216 216 216 219 217 212 212 212 209 212 217 217 213 212 214 217 218 217 218 217 217 218 219 221 222 222 222 223 224 224 224 225 226 226 227 231 233 229 229 235 237 237 238 239 246 254 257 260 263 260 258 259 262 264 264 264 264 265 266 267 267 268 267 266 267 270 274
83 90 121 164 206 214 205 199 208 218 212 212 219 211 210 219 220 220 222 220 222 224 220 215 213 212 212 215 218 220 218 216 217 219 219 220 220 219 219 220 220 221 222 222 223 223 225 225 225 225 226 227 227 229 233 232 232 237 239 240 240 239 240 248 254 255 255 255 256 256 258 258 257 258 259 259 260 263 264 266 267 265 265 265 266
67 76 90 88 92 235 235 221 222 231 229 224 223 219 218 218 218 222 222 218 218 220 218 218 217 215 216 216 219 224 223 222 221 221 221 221 221 221 221 222 222 223 222 223 224 223 224 226 226 226 226 227 229 229 231 233 235 238 241 242 243 244 244 247 250 250 249 251 252 251 252 255 256 256 257 258 259 260 261 263 263 263 263 261 265
50 61 78 74 70 71 256 234 221 221 225 225 221 219 222 222 222 226 228 225 223 218 216 218 220 221 220 219 221 223 224 226 225 225 224 223 222 222 223 223 224 224 224 224 225 226 226 226 227 228 229 229 230 230 232 234 235 237 240 242 242 245 248 250 252 252 252 253 255 254 252 251 252 253 254 256 257 257 258 259 260 261 261 259 258
55 58 68 73 73 78 80 219 228 223 225 226 220 214 215 217 222 230 236 235 234 234 233 228 224 224 225 225 225 225 227 229 227 227 227 225 224 224 224 225 225 226 227 227 228 229 229 228 228 230 230 229 229 231 233 234 236 236 237 240 242 243 247 251 254 256 257 257 257 259 258 255 254 254 254 254 255 256 257 258 257 256 258 260 261
61 59 60 61 63 67 71 68 248 240 233 231 230 226 219 216 219 226 233 234 233 236 242 242 239 236 234 232 232 229 228 229 229 228 227 226 225 224 224 223 223 224 225 228 232 234 234 236 238 236 232 229 228 230 233 234 236 237 237 238 241 243 246 248 249 253 256 259 260 259 260 261 257 252 253 257 258 256 256 257 257 255 255 260 264
58 57 55 55 56 55 53 51 39 285 237 229 234 238 232 227 224 222 218 223 231 233 238 244 247 249 249 246 242 236 228 228 230 226 222 221 220 223 227 224 221 221 221 221 226 232 237 242 243 240 238 236 232 230 232 233 234 235 237 239 240 241 245 248 251 254 255 256 260 261 263 266 265 259 256 258 258 255 253 256 260 263 263 263 262
57 59 60 61 60 60 58 54 46 24 249 233 237 245 243 234 229 225 215 204 222 243 250 252 253 257 259 258 256 250 241 236 231 225 223 223 222 227 233 231 228 228 227 227 229 230 233 239 241 240 239 240 237 234 234 236 236 235 234 237 239 239 241 242 244 250 251 252 256 261 263 265 266 264 262 261 261 261 261 263 267 269 268 266 265
53 56 60 63 62 62 61 57 49 38 358 239 243 253 256 246 239 238 232 227 240 260 268 270 269 264 261 260 259 254 250 247 238 231 231 233 233 237 239 236 235 236 236 237 239 236 232 233 239 242 241 242 242 239 236 237 239 239 236 235 239 243 245 244 241 245 250 253 256 259 263 267 268 265 263 263 265 268 270 272 271 269 268 270 270
45 50 54 56 56 57 56 55 50 43 33 313 246 252 264 255 247 245 239 236 243 255 263 270 271 266 261 260 258 254 252 251 245 239 239 241 240 241 241 238 236 237 238 240 240 238 233 230 233 237 238 245 249 242 236 234 235 238 238 240 244 249 252 251 249 251 253 255 260 262 263 267 271 271 271 272 271 271 273 274 273 273 275 275 273
30 41 52 51 49 50 50 51 52 51 52 56 191 212 234 246 242 241 237 232 233 241 252 261 264 262 259 258 257 255 254 253 251 247 244 242 241 240 240 239 236 233 235 237 238 238 236 234 235 236 236 247 257 252 245 242 241 243 243 243 246 249 252 252 253 258 258 254 257 260 259 259 263 267 272 277 281 279 278 280 281 280 279 277 274
26 30 47 53 51 49 51 56 61 68 75 74 81 143 178 196 227 229 228 227 226 232 242 251 258 263 262 258 259 260 257 254 253 252 249 246 245 245 244 242 239 235 233 235 238 240 241 241 240 240 241 246 254 259 257 252 251 252 252 250 248 247 249 252 254 258 259 256 256 260 262 263 265 265 268 276 284 287 286 285 282 281 279 278 276
49 38 45 53 53 49 49 53 60 68 72 68 65 74 110 126 127 181 201 215 224 234 249 259 263 265 262 258 260 261 257 252 251 253 253 250 247 248 249 245 242 241 240 239 241 243 244 243 240 239 241 244 247 254 261 262 258 258 258 256 253 250 250 251 251 257 263 265 265 267 267 267 269 270 271 275 281 285 284 281 280 279 277 277 276
72 61 54 56 55 51 47 45 52 62 65 70 72 71 75 85 89 98 124 150 174 198 236 258 255 253 250 245 244 248 250 246 243 246 252 251 247 250 254 252 248 249 249 247 245 242 240 239 238 240 243 244 245 247 253 261 265 263 260 257 256 257 259 256 253 259 267 270 271 274 273 271 272 273 273 274 275 278 279 279 278 274 273 277 280
77 74 67 64 63 60 53 50 54 60 62 67 73 76 77 76 75 75 82 88 91 89 84 81 84 95 205 230 230 234 240 242 240 241 247 251 249 250 256 257 254 253 252 250 246 241 237 234 234 237 239 240 241 243 246 253 260 262 259 256 256 259 263 263 258 258 264 268 271 274 274 273 274 273 271 271 271 275 277 276 277 277 278 280 280
80 75 71 71 71 69 63 56 55 59 63 65 67 73 76 75 75 76 76 78 79 78 76 74 74 74 76 85 151 218 237 246 250 251 255 259 256 252 256 259 257 254 253 249 244 237 232 231 233 237 240 241 242 245 247 250 254 256 254 254 254 255 261 265 262 258 263 269 273 275 272 271 272 273 271 269 269 272 273 273 276 278 278 278 278
83 78 75 74 74 73 70 63 56 56 62 69 74 78 76 74 75 76 75 75 74 72 71 69 67 63 62 65 72 79 119 227 246 254 261 266 263 262 266 267 266 260 249 240 233 230 229 231 236 237 236 238 241 243 245 247 251 253 251 251 253 255 259 262 261 261 266 269 271 273 270 267 269 271 272 273 273 272 272 273 274 274 274 275 276
86 82 77 75 75 76 75 72 65 62 64 68 78 86 86 81 78 76 75 75 74 73 71 70 67 63 60 60 60 54 53 63 67 40 353 312 294 318 337 313 295 273 245 224 217 223 228 230 232 230 224 225 230 232 235 242 248 250 250 250 253 255 258 259 261 264 268 269 270 271 268 265 266 268 270 275 277 276 274 275 275 274 274 275 275
89 83 77 75 76 76 77 77 74 71 70 68 74 82 83 80 79 78 77 77 77 75 74 72 72 72 69 67 64 55 48 45 38 26 20 19 27 56 61 56 45 28 1 200 198 208 214 211 211 214 213 214 218 221 229 239 244 245 249 252 254 256 258 261 264 265 266 267 269 271 269 267 266 268 272 275 277 276 276 277 276 274 274 274 273
90 85 81 78 77 76 76 76 74 73 72 70 71 73 71 70 71 71 73 79 81 79 76 74 73 74 74 72 69 65 65 66 61 48 33 20 18 85 93 77 70 63 47 51 192 211 220 213 204 203 208 215 221 226 236 246 250 252 256 259 261 261 263 266 268 267 266 265 265 267 269 269 269 272 275 276 276 275 275 276 277 276 275 274 273
92 88 85 81 79 76 73 72 76 77 74 73 73 71 66 64 66 65 68 76 79 78 75 70 66 65 66 67 65 63 64 69 71 72 77 81 83 114 120 88 86 106 125 171 218 237 253 256 249 244 244 245 246 249 256 263 265 266 267 268 270 269 269 269 269 269 269 266 265 266 270 273 275 275 275 275 275 275 276 277 278 277 276 274 272
96 92 88 83 80 76 72 71 78 86 87 85 81 75 66 60 61 64 67 71 74 73 69 64 59 56 54 55 58 60 60 62 65 67 69 72 76 88 101 100 112 164 203 218 230 242 251 254 256 257 254 255 258 262 267 272 275 276 276 276 276 274 273 271 268 267 267 265 266 270 275 280 283 281 280 279 278 279 280 281 280 279 278 276 272
99 94 90 86 83 79 76 71 69 76 86 90 89 84 73 60 52 55 60 62 66 68 66 62 60 57 53 48 48 50 53 57 60 63 63 61 61 68 74 77 86 101 120 207 235 250 258 260 262 257 254 265 280 283 281 280 284 285 283 280 279 275 272 268 262 260 263 265 268 276 285 291 295 295 295 293 291 289 287 285 285 284 284 282 278
102 97 93 90 86 82 81 77 70 66 68 74 82 86 81 68 51 46 53 56 56 58 61 61 59 58 59 58 53 50 50 53 54 55 59 59 55 55 58 62 69 76 73 71 74 78 79 81 74 50 33 33 19 331 303 291 285 283 278 276 275 268 263 264 262 261 271 280 286 295 306 313 314 314 313 308 301 295 292 291 292 292 293 295 289
107 103 98 95 89 83 80 79 77 73 67 64 63 70 78 78 68 57 56 59 59 57 55 56 56 55 55 56 57 55 54 57 60 58 57 60 59 53 49 52 59 67 70 70 72 75 78 80 77 70 66 67 63 42 23 7 311 289 293 297 292 289 297 305 299 294 305 314 312 314 323 329 330 330 326 318 311 308 309 312 309 303 301 301 295
111 109 107 102 96 89 82 76 74 73 71 69 64 59 63 73 80 79 72 68 66 62 56 53 52 51 50 50 50 49 47 49 56 62 63 63 61 58 56 56 55 59 66 71 73 74 74 72 66 58 56 53 36 17 9 358 336 325 335 341 333 323 321 317 312 313 323 324 317 317 330 342 347 345 334 326 325 328 330 332 327 316 311 307 299
119 117 114 107 101 95 87 79 72 67 64 63 62 60 56 54 59 69 76 74 67 55 49 49 47 44 45 46 46 50 51 45 43 50 59 62 60 56 57 58 56 57 63 66 66 64 56 41 26 11 0 354 351 349 347 341 331 325 327 331 330 324 317 313 314 320 325 326 331 342 356 357 357 344 326 323 334 338 335 340 347 350 348 338 322
128 122 115 107 102 97 90 84 75 65 60 56 54 55 56 53 50 51 59 71 75 65 50 43 45 48 52 48 40 46 62 62 53 47 48 52 54 50 50 55 57 59 63 61 53 45 22 4 4 2 358 358 355 352 351 346 339 334 330 327 325 324 323 325 330 332 336 1 14 14 2 348 350 343 331 335 346 345 342 350 2 9 11 5 349
139 131 123 112 101 92 87 85 79 70 64 57 50 48 49 49 51 52 49 52 66 71 58 40 35 43 55 56 43 35 43 49 55 59 51 42 35 28 29 42 50 50 56 60 56 52 45 41 41 35 25 20 15 9 7 2 357 354 347 339 334 328 327 335 341 347 36 47 30 18 7 357 356 357 353 352 355 354 354 3 18 32 39 44 56